MST,Max TemperatureF,Mean TemperatureF,Min TemperatureF,Max Dew PointF,MeanDew PointF,Min DewpointF,Max Humidity, Mean Humidity, Min Humidity, Max Sea Level PressureIn, Mean Sea Level PressureIn, Min Sea Level PressureIn, Max VisibilityMiles, Mean VisibilityMiles, Min VisibilityMiles, Max Wind SpeedMPH, Mean Wind SpeedMPH, Max Gust SpeedMPH,PrecipitationIn, CloudCover, Events, WindDirDegrees
2011-12-1,53,43,32,22,19,16,56,42,28,30.18,29.93,29.79,10,9,6,54,31,69,0.00,2,,88
2011-12-2,40,35,30,32,26,19,96,73,50,30.20,30.01,29.83,10,7,1,40,15,49,0.03,7,Snow,94
2011-12-3,39,33,26,32,30,24,100,80,59,30.14,29.95,29.80,10,4,0,21,6,25,0.10,7,Fog-Snow,193
2011-12-4,37,32,26,29,26,18,100,80,59,30.15,30.07,29.98,10,4,0,28,5,36,T,7,Fog-Snow,106
2011-12-5,27,21,14,18,13,4,84,69,54,30.41,30.19,30.03,10,5,1,37,20,46,T,7,Snow,94
2011-12-6,30,20,9,10,7,4,80,60,39,30.45,30.40,30.24,10,10,5,16,5,22,T,2,Snow,330
2011-12-7,38,28,17,18,12,9,74,55,35,30.48,30.37,30.25,10,10,10,10,5,13,0.00,2,,60
2011-12-8,45,32,19,22,17,15,84,59,33,30.26,30.20,30.10,10,10,9,9,3,12,0.00,3,,267
2011-12-9,45,35,24,20,18,15,75,53,31,30.41,30.31,30.21,10,10,7,16,6,22,0.00,0,,352
2011-12-10,42,32,22,20,18,15,81,60,38,30.46,30.35,30.25,10,10,7,9,4,13,0.00,0,,9
2011-12-11,42,31,20,26,21,14,84,67,49,30.24,30.16,30.06,10,10,7,10,2,14,0.00,4,,245
2011-12-12,36,32,28,34,30,23,100,82,64,30.13,30.06,30.01,10,4,0,15,5,17,0.24,8,Fog-Rain-Snow,329
2011-12-13,46,41,35,41,37,33,100,92,83,30.05,29.97,29.85,10,5,0,22,5,29,0.13,8,Fog-Rain,317
2011-12-14,45,39,33,34,30,25,96,73,49,30.18,30.04,29.90,10,9,2,15,7,18,0.10,6,Rain-Snow,271
2011-12-15,43,35,26,25,23,20,81,63,45,30.30,30.23,30.17,10,10,10,18,9,26,0.00,2,,77
2011-12-16,45,35,25,24,21,17,88,61,33,30.45,30.37,30.27,10,10,10,15,6,18,0.00,1,,356
2011-12-17,48,37,26,24,20,17,69,51,33,30.52,30.41,30.32,10,10,10,14,5,16,0.00,5,,352
2011-12-18,45,37,28,36,29,21,85,65,45,30.30,30.10,29.84,10,10,7,13,4,14,0.01,3,Rain,167
2011-12-19,38,35,32,35,33,30,100,96,92,30.04,29.80,29.70,5,2,0,16,4,18,0.56,8,Fog-Rain-Snow,210
2011-12-20,38,32,26,31,29,25,100,85,70,30.11,30.04,29.98,10,6,0,10,4,13,0.00,6,Fog,168
2011-12-21,41,32,23,30,26,21,100,80,59,30.01,29.95,29.86,10,5,0,9,4,12,0.00,7,Fog,158
2011-12-22,41,33,24,29,23,16,85,70,54,30.27,30.11,29.97,10,7,0,40,14,51,0.01,7,Snow,98
2011-12-23,36,30,23,21,17,12,69,61,52,30.45,30.37,30.25,10,10,8,35,11,43,T,5,Snow,6
2011-12-24,38,28,18,20,14,7,81,58,35,30.55,30.49,30.43,10,10,10,15,5,20,0.00,1,,356
2011-12-25,36,27,17,20,16,13,88,66,43,30.60,30.49,30.35,10,10,8,10,4,12,0.00,0,,267
2011-12-26,43,30,16,20,17,12,88,61,33,30.38,30.32,30.24,10,10,7,8,2,9,0.00,1,,279
2011-12-27,45,33,21,22,19,16,88,62,36,30.42,30.32,30.22,10,10,10,8,3,9,0.00,0,,183
2011-12-28,51,38,25,21,17,14,81,53,24,30.40,30.31,30.24,10,10,10,10,4,13,0.00,2,,286
2011-12-29,56,42,27,24,19,15,63,42,20,30.27,30.14,30.01,10,10,10,9,3,10,0.00,2,,353
2011-12-30,57,42,27,30,26,23,78,54,30,30.24,30.15,30.07,10,10,10,10,3,13,0.00,2,,156
2011-12-31,61,47,32,31,22,11,82,50,17,30.36,30.16,30.04,10,10,10,21,9,31,0.00,3,,114